STARLINK-36000

Last updated on Mon Dec 15 2025 00:02:11 GMT+0000 (Coordinated Universal Time)

1 66807U 25278S 25348.25003472 -.01319711 00000+0 -68632-2 0 9997 2 66807 42.9972 242.7456 0001849 275.2527 134.9887 15.82831753 3268
UTC large
Height (km)
Speed (km/s)
/
Latitude / Longitude
Inclination (degrees)
Orbital Period (minutes)
Azimuth
Elevation
Range (km)
Doppler Factor

Next 0 passes for location: London (51.5072 / 0.1276)

Sorry there are no passes over London.